sat.trackr.live / text

‹ back to catalog

APSTAR-6C

NORAD 43450 · 2018-041A

PAYLOAD ACTIVE UNKNOWN

§ Identity

Operator
Country
PRC
Launch date
2018-05-03
Launch site
XICLF
Launch vehicle
Mass (kg)
RCS (m²)

Purposes: comms

External: N2YO · Heavens-Above · Gunter

§ Orbital elements

Epoch: 2026-09-19T21:01:50.463264Z

Period
1,436.10 min
Inclination
0.0525°
Eccentricity
0.0001847
Mean motion
1.00271286 rev/d
Perigee alt
35,778.9 km
Apogee alt
35,794.5 km
Semi-major
42,164.9 km
B*
0.0000e+0
RAAN
314.0023°
Arg perigee
273.0477°
Mean anomaly
221.2172°
Rev number
3,076

§ Raw data

APSTAR-6C1 43450U 18041A   26262.87627851 -.00000322  00000+0  00000+0 0  99982 43450   0.0525 314.0023 0001847 273.0477 221.2172  1.00271286 30763

JSON: /api/v1/satellites/43450 · /tle

For live sub-satellite position, see the globe view (requires WebGL).

§ Visibility from observer

Set your observer location to see the next 7 days of passes ≥ 10°. The values pass through the URL so the page stays shareable.

No JS? Fill the form by hand. The geolocation button needs JavaScript.